User: anonymous   Login
Location: Caltech
(34.1382°N, 118.1253°W)
Time: 15:03:23
(UTC-07:00)
Language:

ALOS - Orbit

View from above orbital plane
View from above orbital plane
View from above satellite
View from above satellite

Ground track
Ground track

The orbit data is extracted from the following two-line orbital elements,

1 28931U 06002A   15183.88454375  .00000222  00000-0  53233-4 0  9999
2 28931 097.9308 232.6594 0002531 082.5609 277.5882 14.61903705502937
Epoch (UTC): 02 July 2015 21:13:44
Eccentricity: 0.0002531
inclination: 97.9308°
perigee height: 685 km
apogee height: 689 km
right ascension of ascending node: 232.6594°
argument of perigee: 82.5609°
revolutions per day: 14.61903705
mean anomaly at epoch: 277.5882°
orbit number at epoch: 50293

The dashed part of the orbit path shows where the satellite is in the earth's shadow,  

DLR